Dauntless Aviation
Airports Europe Germany
EDAJ

Gera-Leumnitz Airfield

Gera, GERMANY

Airport Info
Suggest Updated Information for this Airport

Location

Latitude / Longitude: 50°52'54"N / 12°8'8"E
  50°52.902'N / 12°8.148'E
  50.8817 / 12.1358
Satellite photo at:
Airport distance calculator
From:
Weather Reports

METAR

EDAC
15.1nm NE
EDAC 191850Z AUTO 08006KT 9999 // NCD 15/03 Q1019
EDDP
33.3nm N
EDDP 191850Z 06008KT CAVOK 16/02 Q1019 NOSIG

TAF

EDAC
15.1nm NE
TAF EDAC 191700Z 1918/2003 06005KT CAVOK
EDDP
33.3nm N
TAF EDDP 191700Z 1918/2018 07010KT CAVOK BECMG 1918/1921 07005KT
EDQM
36.6nm S
TAF EDQM 191700Z 1918/2003 09004KT CAVOK
Safelog

 

Dauntless Aviation

© 2007-2020 Dauntless Aviation, all rights reserved
Information provided via PilotNav comes from a variety of official and unofficial data sources. As errors are possible, do not use PilotNav for primary flight planning purposes. Verify any information that you receive via PilotNav with current and canonical charts and other official documents. The material in this database is subject to database copyrights held by Dauntless Aviation and may not be copied without the express permission of Dauntless Aviation - licenses for use of part of all of this data are available for purchase; enquire via the Dauntless Aviation helpdesk. A number of mechanisms and markers exist in the database to protect against and identify infringement / copyright. Automated queries against this website are strictly prohibited, and all activity is logged and analyzed.